Tucson, AZ

6:11 PM MST on June 22, 2017 (GMT -0700)
Tucson International

Weather History for KTUS - January, 2012

Change the Weather History Date:

Monday, January 30, 2012

  Actual Average Record
Temperature  
Mean Temperature 59 °F 54 °F  
Max Temperature 75 °F 67 °F 82 °F (1987)
Min Temperature 43 °F 41 °F 25 °F (1979)
Degree Days  
Heating Degree Days 6 11  
Month to date heating degree days 284 371  
Since 1 July heating degree days 962 982  
Cooling Degree Days 0 0  
Month to date cooling degree days 2 0  
Year to date cooling degree days 2 0  
Growing Degree Days 9 (Base 50)    
Moisture  
Dew Point 22 °F    
Average Humidity 31    
Maximum Humidity 49    
Minimum Humidity 12    
Precipitation  
Precipitation 0.00 in 0.04 in 1.39 in (2015)
Month to date precipitation 0.14 0.91  
Year to date precipitation 0.14 0.91  
Snow  
Snow 0.00 in - - ()
Month to date snowfall 0.0  
Snow Depth 0.00 in    
Sea Level Pressure  
Sea Level Pressure 30.00 in    
Wind  
Wind Speed 6 mph (South)    
Max Wind Speed 15 mph    
Max Gust Speed 18 mph    
Visibility 10 miles    
Events      
T = Trace of Precipitation, MM = Missing Value Source: NWS Daily Summary

Daily Weather History Graph

Daily Weather History Graph

Search for Another Location

Airport or City:

Trip Planner

Search our weather history database for the weather conditions in past years. The results will help you decide how hot, cold, wet, or windy it might be!

Date:

Astronomy

Jan. 30, 2012 Rise Set
Actual Time 7:19 AM MST 5:55 PM MST
Civil Twilight 6:53 AM MST 6:21 PM MST
Nautical Twilight 6:23 AM MST 6:50 PM MST
Astronomical Twilight 5:54 AM MST 7:19 PM MST
Moon 11:13 AM MST (1/30) 12:13 AM MST (1/30)
Length of Visible Light 11h 27m
Length of Day
10h 36m
Waxing Crescent, 46% of the Moon is Illuminated
Jan 30
Waxing Crescent
Jan 30
First Quarter
Feb 7
Full
Feb 14
Last Quarter
Feb 21
New

Hourly Weather History & Observations

Time (MST) Temp. Windchill Dew Point Humidity Pressure Visibility Wind Dir Wind Speed Gust Speed Precip Events Conditions
12:53 AM 48.9 °F - 25.0 °F 39% 30.05 in 10.0 mi SE 5.8 mph - N/A   Clear
1:53 AM 48.0 °F - 25.0 °F 41% 30.04 in 10.0 mi Calm Calm - N/A   Clear
2:53 AM 48.0 °F - 24.1 °F 39% 30.03 in 10.0 mi SSE 6.9 mph - N/A   Clear
3:53 AM 46.9 °F - 24.1 °F 41% 30.01 in 10.0 mi SSE 10.4 mph - N/A   Clear
4:53 AM 48.2 °F - 23.0 °F 37% 30.08 in 10.0 mi SE 11.5 mph - N/A   Clear
5:53 AM 46.9 °F - 23.0 °F 39% 30.01 in 10.0 mi SE 12.7 mph - N/A   Clear
6:53 AM 43.0 °F 38.8 °F 24.1 °F 47% 30.03 in 10.0 mi SSE 6.9 mph - N/A   Clear
7:53 AM 46.0 °F 40.2 °F 24.1 °F 42% 30.04 in 10.0 mi SE 12.7 mph - N/A   Clear
8:53 AM 52.0 °F - 24.1 °F 34% 30.04 in 10.0 mi SSE 9.2 mph - N/A   Clear
9:53 AM 57.9 °F - 24.1 °F 27% 30.04 in 10.0 mi South 6.9 mph - N/A   Clear
10:53 AM 63.0 °F - 24.1 °F 23% 30.04 in 10.0 mi Calm Calm - N/A   Clear
11:53 AM 69.1 °F - 21.9 °F 17% 30.02 in 10.0 mi Calm Calm - N/A   Clear
12:53 PM 70.0 °F - 19.9 °F 15% 29.98 in 10.0 mi Variable 3.5 mph - N/A   Clear
1:53 PM 73.0 °F - 19.9 °F 14% 29.94 in 10.0 mi Variable 3.5 mph - N/A   Clear
2:53 PM 75.0 °F - 19.0 °F 12% 29.92 in 10.0 mi WNW 8.1 mph - N/A   Clear
3:53 PM 75.0 °F - 19.0 °F 12% 29.93 in 10.0 mi West 6.9 mph - N/A   Clear
4:53 PM 73.0 °F - 17.1 °F 12% 29.92 in 10.0 mi West 10.4 mph - N/A   Clear
5:53 PM 69.1 °F - 17.1 °F 14% 29.93 in 10.0 mi West 6.9 mph - N/A   Clear
6:53 PM 63.0 °F - 19.0 °F 18% 29.97 in 10.0 mi WSW 5.8 mph - N/A   Clear
7:53 PM 59.0 °F - 19.0 °F 21% 29.99 in 10.0 mi WSW 4.6 mph - N/A   Clear
8:53 PM 59.0 °F - 19.0 °F 21% 29.99 in 10.0 mi Calm Calm - N/A   Clear
9:53 PM 55.4 °F - 21.2 °F 26% 30.06 in 10.0 mi SE 5.8 mph - N/A   Clear
10:53 PM 52.0 °F - 21.9 °F 31% 30.00 in 10.0 mi SSE 6.9 mph - N/A   Clear
11:53 PM 48.9 °F - 23.0 °F 36% 30.00 in 10.0 mi SE 4.6 mph - N/A   Clear